Baton Rouge, LA

8:31 PM CDT on October 19, 2019 (GMT -0500)
Baton Rouge Metro-Ryan

Weather History for KBTR - August, 2019

Change the Weather History Date:

Thursday, August 1, 2019

  Actual Average Record
Temperature  
Mean Temperature 83 °F 83 °F  
Max Temperature 93 °F 93 °F 100 °F (1921)
Min Temperature 73 °F 74 °F 63 °F (1909)
Degree Days  
Heating Degree Days 0 0  
Month to date heating degree days 0 0  
Since 1 June heating degree days 0 0  
Since 1 July heating degree days 0 0  
Cooling Degree Days 18 18  
Month to date cooling degree days 18 18  
Year to date cooling degree days 1752 1623  
Since 1 June cooling degree days 1081 1058  
Growing Degree Days 32 (Base 50)    
Moisture  
Dew Point 71 °F    
Average Humidity 71    
Maximum Humidity 93    
Minimum Humidity 49    
Precipitation  
Precipitation 0.00 in 0.19 in 5.11 in (1983)
Month to date precipitation 0.00 0.19  
Year to date precipitation 41.42 36.08  
Snow  
Snow 0.00 in - - ()
Month to date snowfall 0.0  
Since 1 June snowfall 0.0  
Since 1 July snowfall 0.0  
Snow Depth 0.00 in    
Sea Level Pressure  
Sea Level Pressure 30.02 in    
Wind  
Wind Speed 3 mph (North)    
Max Wind Speed 9 mph    
Max Gust Speed 11 mph    
Visibility 10 miles    
Events Thunderstorm    
T = Trace of Precipitation, MM = Missing Value Source: NWS Daily Summary

Daily Weather History Graph

Daily Weather History Graph

Search for Another Location

Airport or City:

Astronomy

Aug. 01, 2019 Rise Set
Actual Time 6:22 AM CDT 7:58 PM CDT
Civil Twilight 5:56 AM CDT 8:25 PM CDT
Nautical Twilight 5:25 AM CDT 8:56 PM CDT
Astronomical Twilight 4:52 AM CDT 9:29 PM CDT
Moon 6:48 AM CDT (8/1) 8:47 PM CDT (8/1)
Length of Visible Light 14h 28m
Length of Day
13h 36m
New Moon, 1% of the Moon is Illuminated
Aug 1
New Moon
Aug 7
First Quarter
Aug 15
Full
Aug 23
Last Quarter
Aug 30
New

Hourly Weather History & Observations

Time (CDT) Temp. Heat Index Dew Point Humidity Pressure Visibility Wind Dir Wind Speed Gust Speed Precip Events Conditions
12:53 AM 75.0 °F - 72.0 °F 90% 30.02 in 10.0 mi Calm Calm - N/A   Clear
1:53 AM 75.0 °F - 72.0 °F 90% 30.01 in 10.0 mi Calm Calm - N/A   Clear
2:53 AM 75.0 °F - 72.0 °F 90% 30.01 in 8.0 mi Calm Calm - N/A   Clear
3:53 AM 73.9 °F - 71.1 °F 91% 30.01 in 10.0 mi Calm Calm - N/A   Clear
4:53 AM 73.9 °F - 72.0 °F 93% 30.02 in 9.0 mi Calm Calm - N/A   Clear
5:53 AM 73.0 °F - 70.0 °F 90% 30.03 in 10.0 mi Calm Calm - N/A   Clear
6:53 AM 73.9 °F - 71.1 °F 91% 30.04 in 6.0 mi Calm Calm - N/A   Clear
6:58 AM 73.9 °F - 71.1 °F 91% 30.04 in 10.0 mi Calm Calm - N/A   Clear
7:53 AM 78.1 °F - 73.9 °F 87% 30.07 in 10.0 mi North 3.5 mph - N/A   Clear
8:53 AM 82.9 °F 89.4 °F 73.9 °F 74% 30.08 in 10.0 mi North 3.5 mph - N/A   Clear
9:53 AM 86.0 °F 92.2 °F 72.0 °F 63% 30.07 in 10.0 mi Variable 4.6 mph - N/A   Clear
10:53 AM 88.0 °F 94.7 °F 72.0 °F 59% 30.08 in 10.0 mi Variable 3.5 mph - N/A   Clear
11:53 AM 90.0 °F 95.4 °F 70.0 °F 52% 30.07 in 10.0 mi Calm Calm - N/A   Scattered Clouds
12:53 PM 91.0 °F 96.6 °F 70.0 °F 50% 30.06 in 10.0 mi North 3.5 mph - N/A   Mostly Cloudy
1:53 PM 89.1 °F 93.7 °F 69.1 °F 52% 30.04 in 10.0 mi Variable 3.5 mph - N/A   Mostly Cloudy
2:53 PM 89.1 °F 94.1 °F 70.0 °F 53% 30.02 in 10.0 mi WNW 6.9 mph - N/A Thunderstorm Scattered Clouds
3:20 PM 91.0 °F 96.6 °F 70.0 °F 50% 30.00 in 10.0 mi Variable 6.9 mph - N/A Thunderstorm Scattered Clouds
3:53 PM 90.0 °F 95.4 °F 70.0 °F 52% 29.98 in 10.0 mi West 8.1 mph - N/A   Scattered Clouds
4:53 PM 90.0 °F 94.5 °F 69.1 °F 50% 29.99 in 10.0 mi NW 4.6 mph - N/A   Scattered Clouds
5:53 PM 89.1 °F 94.1 °F 70.0 °F 53% 29.97 in 10.0 mi NW 5.8 mph - N/A   Scattered Clouds
6:53 PM 87.1 °F 92.0 °F 70.0 °F 57% 29.95 in 10.0 mi North 3.5 mph - N/A   Partly Cloudy
7:53 PM 82.0 °F 87.4 °F 73.0 °F 74% 29.97 in 10.0 mi ENE 4.6 mph - N/A   Clear
8:53 PM 80.1 °F 84.2 °F 73.0 °F 79% 29.99 in 10.0 mi North 4.6 mph - N/A   Clear
9:53 PM 79.0 °F - 73.0 °F 82% 30.00 in 10.0 mi NE 4.6 mph - N/A   Clear
10:53 PM 77.0 °F - 73.0 °F 88% 30.01 in 10.0 mi NE 4.6 mph - N/A   Clear
11:53 PM 75.9 °F - 72.0 °F 87% 30.01 in 10.0 mi East 5.8 mph - N/A   Scattered Clouds